2025-012B (62726 NORAD) Tracking and Keplerian Element Data

This shows tracking and keplerian element data for the satellite.

Feedback or suggestion? Click here.




ElementValue
Catalog62726
Name2025-012B
Epoch Orbit269
Epoch Day35.18576285
Epoch Year2025
RAAN110.839
Inclination97.477
Eccentricity0.0009543
Argument of Perigee205.4216
Mean Anonmoly154.6548
Mean Motion15.14750794
Decay Rate7.881E-05
L11 62726U 25012B 25035.18576285 .00007881 00000+0 42802-3 0 9992
L22 62726 97.4770 110.8390 0009543 205.4216 154.6548 15.14750794 2695



Live tracking and technical data element details for 2025-012B (NORAD 62726). 2025-012B can be tracked NOW for your location showing map with azimuth and elevation plus other details from your city location.







IsCatalogInMostPopularTable: catalog: 62726, numindb: 3
Update: records affected: 1



GetName: 62726 2025-012B

Hit Count: updated at: Sun, 09 Feb 2025 13:35:42 GMT